Regional Weather Roundup
Issued by NWS

Home | Current Version | Previous Version | Graphics & Text | Print | Product List | Glossary On
Versions: 1 2 3 4 5 6 7 8 9 10 11 12 13 14 15 16 17 18 19 20 21 22 23 24 25 26 27 28 29 30 31 32 33 34 35 36 37 38 39 40 41 42 43 44 45 46 47 48 49 50
251
ASUS43 KFSD 210202
RWRSD

WEATHER ROUNDUP FOR SOUTH DAKOTA
NATIONAL WEATHER SERVICE SIOUX FALLS SD
800 PM CST MON FEB 20 2017

NOTE: "FAIR" INDICATES FEW OR NO CLOUDS BELOW 12,000 FEET WITH NO
SIGNIFICANT WEATHER AND/OR OBSTRUCTIONS TO VISIBILITY.


SDZ001>005-009-010-012>017-210300-
NORTHWEST AND NORTH CENTRAL SOUTH DAKOTA

CITY           SKY/WX    TMP DP  RH WIND       PRES   REMARKS
BUFFALO          N/A     47  25  42 SE12      29.65F
FAITH            N/A     45  28  51 SE13      29.77S
MOBRIDGE       CLEAR     38  31  76 SE5       29.77R
$$

SDZ012>016-024>037-041>051-057-063-072>074-210300-
SOUTHWEST AND SOUTH CENTRAL SOUTH DAKOTA

CITY           SKY/WX    TMP DP  RH WIND       PRES   REMARKS
RAPID CTY ARPT CLEAR     49  24  37 S7        29.79F
PIERRE         CLEAR     46  31  55 S3        29.82R
CUSTER         CLEAR     46  25  43 SW13G21   29.87R
ELLSWORTH AFB  PTCLDY    51  28  40 S10       29.77F
PHILIP         CLEAR     42  28  57 E7        29.81S
PINE RIDGE     CLEAR     48  28  46 W7        29.88R
SPEARFISH      FAIR      55  28  35 SW25G31   29.74F
WINNER         FAIR      47  28  47 S6        29.88R
$$

SDZ004>011-016>023-039-040-210300-
NORTHEAST SOUTH DAKOTA

CITY           SKY/WX    TMP DP  RH WIND       PRES   REMARKS
ABERDEEN       CLEAR     35  31  85 CALM      29.81R
WATERTOWN      CLEAR     39  37  92 W9        29.82R
BROOKINGS      CLEAR     39  37  92 W7        29.83S
SISSETON         N/A     41  37  86 NW13      29.78R
$$

SDZ017-020-022-023-036>040-048>070-210300-
SOUTHEAST SOUTH DAKOTA

CITY           SKY/WX    TMP DP  RH WIND       PRES   REMARKS
SIOUX FALLS    CLEAR     42  39  89 W6        29.86R
HURON          CLEAR     40  40 100 CALM      29.84S
CHAMBERLAIN    CLEAR     42  35  76 SE3       29.86R
MITCHELL       CLEAR     42  37  82 SE6       29.86S
YANKTON        CLEAR     45  37  76 SW3       29.88S
$$

ABBREVIATIONS USED IN REMARKS
   TC - TEMPERATURE IN CELSIUS
  WCI - WIND CHILL INDEX
   HX - HEAT INDEX
  VSB - VISIBILITY





USA.gov is the U.S. government's official web portal to all federal, state and local government web resources and services.